Home > Weather > Svolvær > Past weeks

Flag for Norway Past Weather in Svolvær, Norway — Yesterday and Last 2 Weeks

Now
56 °F

Cool.


Feels Like: 56 °F
Forecast: 56 / 65 °F
Wind: 2 mph from North

Location: Skrova Fyr

Current Time: Jul 25, 2016 at 4:33:12 AM

Latest Report: Jul 25, 2016 at 3:00 AM


Visibility: N/A

Pressure: 30.11 "Hg

Humidity: 93%

Dew Point: 54 °F

Location of SvolværLocation

Past Weather in Svolvær — Graph

°F

Svolvær Temperature Yesterday

Maximum temperature yesterday: 60 °F (at 3:00 PM)
Minimum temperature yesterday: 56 °F (at 4:00 AM)
Average temperature yesterday: 58 °F

High & Low Weather Summary for the Past Weeks

 TemperatureHumidityPressure
High78 °F (Jul 22, 4:00 PM)97% (Jul 23, 2:00 AM)30.16 "Hg (Jul 23, 2:00 AM)
Low49 °F (Jul 18, 4:00 AM)44% (Jul 21, 1:00 PM)29.47 "Hg (Jul 11, 7:00 PM)
Average56 °F80%29.86 "Hg
* Reported Jul 10 3:00 AM — Jul 25 3:00 AM, Svolvær, Weather by CustomWeather, © 2016

Note: Actual official high and low records may vary slightly from our data, if they occured in-between our weather recording intervals... More about our weather records

Advertising

Svolvær Weather History for the Previous 24 Hours

Scroll right to see more
 ConditionsComfort  
Time TempWeatherWind HumidityBarometerVisibility
3:00 AM
Mon, Jul 25
56 °FCool.2 mph93%30.11 "HgN/A
2:00 AM57 °FCool.5 mph93%30.11 "HgN/A
1:00 AM57 °FCool.1 mph92%30.12 "HgN/A
12:00 AM56 °FCool.7 mph92%30.12 "HgN/A
11:00 PM
Sun, Jul 24
56 °FCool.6 mph92%30.13 "HgN/A
10:00 PM57 °FCool.5 mph91%30.13 "HgN/A
9:00 PM57 °FCool.5 mph91%30.14 "HgN/A
8:00 PM58 °FCool.3 mph90%30.14 "HgN/A
7:00 PM58 °FCool.3 mph89%30.14 "HgN/A
6:00 PM59 °FCool.1 mph88%30.15 "HgN/A
5:00 PM60 °FCool.1 mph88%30.15 "HgN/A
4:00 PM59 °FCool.1 mph89%30.16 "HgN/A
3:00 PM60 °FCool.2 mph89%30.16 "HgN/A
2:00 PM59 °FCool.1 mph90%30.16 "HgN/A
1:00 PM58 °FCool.1 mph94%30.16 "HgN/A
12:00 PM59 °FCool.1 mph94%30.16 "HgN/A
11:00 AM58 °FCool.1 mph94%30.16 "HgN/A
10:00 AM58 °FCool.1 mph94%30.16 "HgN/A
9:00 AM58 °FCool.No wind94%30.16 "HgN/A
8:00 AM57 °FCool.1 mph94%30.16 "HgN/A
7:00 AM57 °FCool.1 mph94%30.15 "HgN/A
6:00 AM57 °FCool.1 mph93%30.14 "HgN/A
5:00 AM57 °FCool.2 mph91%30.15 "HgN/A
4:00 AM56 °FCool.2 mph90%30.14 "HgN/A
Weather by CustomWeather, © 2016

See weather overviewHow to use our weather pages